Regional Weather Roundup
Issued by NWS

Home | Current Version | Previous Version | Text Only | Print | Product List | Glossary Off
Versions: 1 2 3 4 5 6 7 8 9 10 11 12 13 14 15 16 17 18 19 20 21 22 23 24 25 26 27 28 29 30 31 32 33 34 35 36 37 38 39 40 41 42 43 44 45 46 47 48 49 50

000
ASUS43 KLSX 301859
RWRMO

WEATHER SUMMARY FOR MISSOURI
NATIONAL WEATHER SERVICE SPRINGFIELD MO
200 PM CDT TUE SEP 30 2014

NOTE: "FAIR" INDICATES FEW OR NO CLOUDS BELOW 12,000 FEET WITH NO
       SIGNIFICANT WEATHER AND/OR OBSTRUCTIONS TO VISIBILITY.
       CURRENT SKY AND/OR WEATHER CONDITIONS ARE NOT AVAILABLE FOR
       CHILLICOTHE AND FARMINGTON.

MOZ001>031-035>038-043-044-053-054-302000-
...NORTHERN AND WESTERN MISSOURI...

CITY           SKY/WX    TMP DP  RH WIND       PRES   REMARKS
KANSAS CTY INT MOSUNNY   83  60  45 S17       29.85F
KANSAS C DTWN  MOSUNNY   84  59  42 S9        29.84F
LEE`S SUMMIT   MOSUNNY   83  57  41 S13G21    29.87F
ST JOSEPH      SUNNY     86  56  35 S16G23    29.83F
CHILLICOTHE      N/A     84  60  44 S8        29.87F
KIRKSVILLE     MOSUNNY   70  61  73 E10       29.93F

$$
MOZ066>068-077>081-088>096-101>105-302000-
...SOUTHWEST MISSOURI...

CITY           SKY/WX    TMP DP  RH WIND       PRES   REMARKS
SPRINGFIELD    PTSUNNY   83  58  42 S13       29.91F
JOPLIN         MOSUNNY   82  59  45 S12G22    29.89F

$$
MOZ032>034-039>042-045>050-055>058-069>072-302000-
...CENTRAL MISSOURI...

CITY           SKY/WX    TMP DP  RH WIND       PRES   REMARKS
COLUMBIA       PTSUNNY   84  55  36 W5        29.90F
JEFFERSON CITY SUNNY     87  52  29 VRB5      29.88F
ROLLA          SUNNY     84  53  34 VRB7      29.90F
SEDALIA        MOSUNNY   83  57  41 S9        29.89F
OSAGE BEACH    MOSUNNY   82  57  42 S3        29.90F

$$
MOZ051-052-059>065-302000-
...EAST CENTRAL MISSOURI...

CITY           SKY/WX    TMP DP  RH WIND       PRES   REMARKS
ST LOUIS INTL  MOSUNNY   84  56  38 CALM      29.92F
SPIRIT OF STL  PTSUNNY   83  60  45 CALM      29.90F
ST CHARLES     SUNNY     83  57  41 N5        29.91F

$$
MOZ072>076-082>087-097>100-106>115-302000-
...SOUTH CENTRAL AND SOUTHEAST MISSOURI...

CITY           SKY/WX    TMP DP  RH WIND       PRES   REMARKS
CAPE GIRARDEAU SUNNY     85  54  34 E6        29.91F
FARMINGTON     MOSUNNY   84  46  26 CALM      29.94F
POPLAR BLUFF   MOSUNNY   87  51  28 N5        29.90F
WEST PLAINS    PTSUNNY   80  52  37 S9        29.95F

$$



USA.gov is the U.S. government's official web portal to all federal, state and local government web resources and services.